EN

Hourly Weather Kiskunhalas

Today, 31 October, Saturday

Time Temperature Precipitation Wind Pressure Humidity
00:00 +12°C° 0.1 mm 5 mps 754 mmHg 83%
01:00 +12°C° 0 mm 5 mps 754 mmHg 81%
02:00 +12°C° 0 mm 5 mps 754 mmHg 81%
03:00 +11°C° 0 mm 6 mps 753 mmHg 81%
04:00 +11°C° 0 mm 7 mps 753 mmHg 81%
05:00 +12°C° 0.2 mm 7 mps 753 mmHg 82%
06:00 +12°C° 0.2 mm 8 mps 753 mmHg 83%
07:00 +12°C° 0 mm 8 mps 753 mmHg 84%
08:00 +12°C° 0.1 mm 8 mps 753 mmHg 83%
09:00 +12°C° 0.1 mm 8 mps 754 mmHg 82%
10:00 +12°C° 0.1 mm 8 mps 754 mmHg 81%
11:00 +12°C° 0.1 mm 7 mps 754 mmHg 80%
12:00 +13°C° 0.1 mm 6 mps 754 mmHg 79%
13:00 +13°C° 0 mm 5 mps 754 mmHg 81%
14:00 +13°C° 0 mm 4 mps 754 mmHg 79%
15:00 +12°C° 0 mm 3 mps 754 mmHg 76%
16:00 +13°C° 0 mm 2 mps 754 mmHg 74%
17:00 +13°C° 0 mm 2 mps 755 mmHg 72%
18:00 +12°C° 0 mm 2 mps 755 mmHg 70%
19:00 +12°C° 0 mm 2 mps 756 mmHg 68%
20:00 +10°C° 0 mm 2 mps 756 mmHg 71%
21:00 +9°C° 0 mm 2 mps 756 mmHg 73%
22:00 +9°C° 0 mm 1 mps 756 mmHg 76%
23:00 +9°C° 0 mm 1 mps 756 mmHg 77%

Tomorrow, 1 November, Sunday

Time Temperature Precipitation Wind Pressure Humidity
00:00 +7°C° 0 mm 2 mps 757 mmHg 78%
01:00 +7°C° 0 mm 2 mps 757 mmHg 79%
02:00 +7°C° 0 mm 2 mps 756 mmHg 80%
03:00 +7°C° 0 mm 1 mps 756 mmHg 81%
04:00 +7°C° 0 mm 1 mps 756 mmHg 82%
05:00 +7°C° 0 mm 1 mps 756 mmHg 81%
06:00 +7°C° 0 mm 1 mps 756 mmHg 81%
07:00 +6°C° 0 mm 2 mps 756 mmHg 81%
08:00 +8°C° 0 mm 2 mps 756 mmHg 73%
09:00 +9°C° 0 mm 2 mps 756 mmHg 66%
10:00 +12°C° 0 mm 2 mps 756 mmHg 59%
11:00 +13°C° 0 mm 2 mps 756 mmHg 55%
12:00 +13°C° 0 mm 2 mps 756 mmHg 51%
13:00 +14°C° 0 mm 1 mps 755 mmHg 47%
14:00 +14°C° 0 mm 2 mps 755 mmHg 50%
15:00 +13°C° 0 mm 2 mps 755 mmHg 53%
16:00 +13°C° 0 mm 2 mps 754 mmHg 55%
17:00 +13°C° 0 mm 2 mps 754 mmHg 57%
18:00 +12°C° 0 mm 2 mps 754 mmHg 58%
19:00 +12°C° 0 mm 2 mps 755 mmHg 59%
20:00 +12°C° 0 mm 2 mps 754 mmHg 59%
21:00 +11°C° 0 mm 3 mps 754 mmHg 60%
22:00 +11°C° 0 mm 3 mps 754 mmHg 60%
23:00 +11°C° 0 mm 3 mps 754 mmHg 61%

Day after tomorrow, 2 November, Monday

Time Temperature Precipitation Wind Pressure Humidity
00:00 +10°C° 0 mm 2 mps 754 mmHg 62%
01:00 +10°C° 0 mm 2 mps 754 mmHg 63%
02:00 +10°C° 0 mm 2 mps 754 mmHg 62%
03:00 +12°C° 0 mm 2 mps 754 mmHg 62%
04:00 +12°C° 0 mm 1 mps 754 mmHg 62%
05:00 +12°C° 0 mm 2 mps 754 mmHg 63%
06:00 +12°C° 0 mm 2 mps 754 mmHg 63%
07:00 +12°C° 0 mm 2 mps 754 mmHg 63%
08:00 +12°C° 0 mm 2 mps 754 mmHg 64%
09:00 +13°C° 0 mm 2 mps 754 mmHg 64%
10:00 +12°C° 0 mm 3 mps 754 mmHg 64%
11:00 +14°C° 0 mm 2 mps 754 mmHg 65%
12:00 +15°C° 0 mm 2 mps 754 mmHg 66%
13:00 +15°C° 0 mm 2 mps 754 mmHg 67%
14:00 +15°C° 0.1 mm 2 mps 754 mmHg 71%
15:00 +14°C° 0.1 mm 2 mps 754 mmHg 76%
16:00 +14°C° 0.1 mm 2 mps 754 mmHg 80%
17:00 +14°C° 0 mm 2 mps 754 mmHg 81%
18:00 +14°C° 0 mm 2 mps 754 mmHg 82%
19:00 +14°C° 0 mm 2 mps 754 mmHg 83%
20:00 +14°C° 0 mm 2 mps 754 mmHg 83%
21:00 +14°C° 0 mm 2 mps 754 mmHg 82%
22:00 +14°C° 0 mm 2 mps 755 mmHg 81%
23:00 +14°C° 0 mm 2 mps 755 mmHg 81%

3 November, Tuesday

Time Temperature Precipitation Wind Pressure Humidity
00:00 +14°C° 0 mm 1 mps 754 mmHg 81%
01:00 +13°C° 0 mm 1 mps 754 mmHg 81%
02:00 +13°C° 0 mm 1 mps 754 mmHg 81%
03:00 +12°C° 0 mm 0 mps 754 mmHg 81%
04:00 +12°C° 0 mm 0 mps 754 mmHg 80%
05:00 +12°C° 0 mm 0 mps 755 mmHg 80%
06:00 +12°C° 0 mm 0 mps 755 mmHg 80%
07:00 +13°C° 0 mm 0 mps 755 mmHg 80%
08:00 +13°C° 0 mm 0 mps 755 mmHg 76%
09:00 +15°C° 0 mm 1 mps 756 mmHg 72%
10:00 +16°C° 0 mm 1 mps 756 mmHg 68%
11:00 +18°C° 0 mm 1 mps 756 mmHg 67%
12:00 +18°C° 0 mm 2 mps 756 mmHg 65%
13:00 +19°C° 0 mm 2 mps 756 mmHg 63%
14:00 +18°C° 0 mm 2 mps 756 mmHg 67%
15:00 +17°C° 0 mm 2 mps 756 mmHg 70%
16:00 +17°C° 0 mm 2 mps 755 mmHg 74%
17:00 +16°C° 0 mm 2 mps 756 mmHg 78%
18:00 +15°C° 0 mm 2 mps 756 mmHg 83%
19:00 +14°C° 0 mm 2 mps 756 mmHg 88%
20:00 +14°C° 0 mm 2 mps 756 mmHg 89%
21:00 +14°C° 0 mm 2 mps 756 mmHg 91%
22:00 +13°C° 0 mm 2 mps 757 mmHg 93%
23:00 +13°C° 0 mm 2 mps 756 mmHg 93%

4 November, Wednesday

Time Temperature Precipitation Wind Pressure Humidity
00:00 +13°C° 0 mm 1 mps 756 mmHg 94%
01:00 +12°C° 0 mm 1 mps 756 mmHg 94%
02:00 +12°C° 0 mm 2 mps 756 mmHg 94%
03:00 +12°C° 0 mm 2 mps 756 mmHg 94%
04:00 +12°C° 0 mm 2 mps 756 mmHg 94%
05:00 +12°C° 0 mm 2 mps 756 mmHg 94%
06:00 +10°C° 0 mm 2 mps 756 mmHg 95%
07:00 +10°C° 0 mm 2 mps 756 mmHg 95%
08:00 +11°C° 0 mm 3 mps 756 mmHg 90%
09:00 +13°C° 0 mm 3 mps 757 mmHg 84%
10:00 +14°C° 0 mm 3 mps 757 mmHg 79%
11:00 +16°C° 0 mm 3 mps 757 mmHg 76%
12:00 +16°C° 0 mm 3 mps 756 mmHg 72%
13:00 +17°C° 0 mm 3 mps 756 mmHg 69%
14:00 +17°C° 0 mm 3 mps 756 mmHg 72%
15:00 +16°C° 0 mm 3 mps 756 mmHg 74%
16:00 +14°C° 0 mm 3 mps 756 mmHg 77%
17:00 +14°C° 0 mm 3 mps 756 mmHg 80%
18:00 +13°C° 0 mm 3 mps 756 mmHg 83%
19:00 +12°C° 0 mm 3 mps 757 mmHg 87%
20:00 +12°C° 0 mm 3 mps 757 mmHg 88%
21:00 +13°C° 0 mm 2 mps 757 mmHg 89%
22:00 +12°C° 0 mm 2 mps 757 mmHg 91%
23:00 +12°C° 0 mm 2 mps 758 mmHg 91%

5 November, Thursday

Time Temperature Precipitation Wind Pressure Humidity
00:00 +12°C° 0 mm 2 mps 758 mmHg 91%
01:00 +13°C° 0 mm 2 mps 758 mmHg 91%
02:00 +13°C° 0 mm 1 mps 758 mmHg 90%
03:00 +13°C° 0 mm 1 mps 758 mmHg 89%
04:00 +13°C° 0 mm 1 mps 758 mmHg 88%
05:00 +13°C° 0 mm 1 mps 758 mmHg 88%
06:00 +13°C° 0 mm 1 mps 759 mmHg 88%
07:00 +13°C° 0 mm 1 mps 759 mmHg 88%
08:00 +14°C° 0 mm 1 mps 759 mmHg 85%
09:00 +14°C° 0 mm 1 mps 759 mmHg 83%
10:00 +15°C° 0 mm 1 mps 760 mmHg 80%
11:00 +15°C° 0 mm 1 mps 760 mmHg 80%
12:00 +15°C° 0 mm 2 mps 760 mmHg 79%
13:00 +15°C° 0 mm 2 mps 760 mmHg 79%
14:00 +14°C° 0 mm 2 mps 759 mmHg 80%
15:00 +14°C° 0 mm 2 mps 759 mmHg 81%
16:00 +14°C° 0 mm 2 mps 759 mmHg 83%
17:00 +12°C° 0.1 mm 3 mps 760 mmHg 85%
18:00 +12°C° 0.1 mm 3 mps 760 mmHg 86%
19:00 +12°C° 0.1 mm 3 mps 760 mmHg 88%
20:00 +12°C° 0.5 mm 4 mps 760 mmHg 89%
21:00 +12°C° 0.5 mm 4 mps 760 mmHg 89%
22:00 +11°C° 0.5 mm 4 mps 761 mmHg 90%
23:00 +10°C° 0.3 mm 5 mps 761 mmHg 87%
Show more